Home > Weather > Keflavík > Past weeks

Flag for Iceland Past Weather in Keflavík, Iceland — Yesterday and Last 2 Weeks

Now
54 °F

Sprinkles. Partly sunny.


Feels Like: 50 °F
Forecast: 46 / 53 °F
Wind: 10 mph from North

Location: Keflavikurflugvollur

Current Time: Jun 29, 2016 at 4:25:42 PM

Latest Report: Jun 29, 2016 at 4:00 PM


Visibility: N/A

Pressure: 29.50 "Hg

Humidity: 77%

Dew Point: 46 °F

Location of KeflavíkLocation

Past Weather in Keflavík — Graph

°F

Keflavík Temperature Yesterday

Maximum temperature yesterday: 55 °F (at 11:00 AM)
Minimum temperature yesterday: 45 °F (at 11:00 PM)
Average temperature yesterday: 50 °F

High & Low Weather Summary for the Past Weeks

 TemperatureHumidityPressure
High61 °F (Jun 20, 4:30 PM)100% (Jun 15, 4:30 AM)30.01 "Hg (Jun 15, 4:30 AM)
Low43 °F (Jun 15, 5:00 AM)51% (Jun 21, 1:00 PM)29.06 "Hg (Jun 20, 6:30 PM)
Average50 °F88%29.65 "Hg
* Reported Jun 14 3:00 PM — Jun 29 3:00 PM, Keflavík, Weather by CustomWeather, © 2016

Note: Actual official high and low records may vary slightly from our data, if they occured in-between our weather recording intervals... More about our weather records

Advertising

Keflavík Weather History for the Previous 24 Hours

Scroll right to see more
 ConditionsComfort  
Time TempWeatherWind HumidityBarometerVisibility
3:00 PM
Wed, Jun 29
54 °FScattered showers. Partly sunny.10 mph72%29.50 "HgN/A
2:30 PM54 °FScattered showers. Partly sunny.10 mph77%29.50 "HgN/A
2:00 PM54 °FScattered showers. Broken clouds.15 mph77%29.50 "HgN/A
1:30 PM54 °FScattered showers. Broken clouds.16 mph72%29.47 "HgN/A
1:00 PM52 °FScattered showers. Broken clouds.15 mph82%29.47 "HgN/A
12:30 PM50 °FLight rain. Broken clouds.12 mph88%29.47 "HgN/A
12:00 PM52 °FScattered showers. Broken clouds.10 mph82%29.47 "HgN/A
11:30 AM52 °FBroken clouds.10 mph77%29.47 "HgN/A
11:00 AM50 °FBroken clouds.15 mph82%29.47 "HgN/A
10:30 AM50 °FScattered showers. Broken clouds.15 mph88%29.45 "HgN/A
10:00 AM50 °FScattered showers. Broken clouds.15 mph88%29.45 "HgN/A
9:30 AM48 °FScattered showers. Broken clouds.18 mph94%29.45 "HgN/A
9:00 AM48 °FBroken clouds.15 mph94%29.42 "HgN/A
8:30 AM46 °FDrizzle. Fog.5 mph93%29.42 "Hg1 mi
8:00 AM46 °FScattered showers. Broken clouds.2 mph93%29.39 "Hg5 mi
7:30 AM45 °FDrizzle. Broken clouds.6 mph100%29.39 "Hg5 mi
7:00 AM45 °FDrizzle. Cloudy.7 mph93%29.39 "Hg3 mi
6:30 AM43 °FLight rain. Mostly cloudy.10 mph100%29.39 "HgN/A
6:00 AM43 °FLight rain. Mostly cloudy.10 mph93%29.39 "HgN/A
5:30 AM43 °FLight rain. Overcast.10 mph93%29.36 "HgN/A
5:00 AM43 °FLight rain. Mostly cloudy.12 mph93%29.39 "HgN/A
4:30 AM43 °FLight rain. Mostly cloudy.14 mph93%29.36 "HgN/A
4:00 AM45 °FMostly cloudy.14 mph87%29.36 "HgN/A
3:30 AM45 °FMostly cloudy.14 mph81%29.36 "HgN/A
3:00 AM45 °FMostly cloudy.15 mph81%29.36 "HgN/A
2:30 AM45 °FPassing clouds.13 mph81%29.36 "HgN/A
2:00 AM45 °FPassing clouds.13 mph81%29.36 "HgN/A
1:30 AM45 °FPassing clouds.12 mph81%29.36 "HgN/A
1:00 AM45 °FPartly cloudy.12 mph81%29.36 "HgN/A
12:30 AM43 °FPartly cloudy.14 mph87%29.36 "HgN/A
12:00 AM45 °FPartly cloudy.13 mph81%29.36 "HgN/A
11:30 PM
Tue, Jun 28
45 °FBroken clouds.10 mph87%29.36 "HgN/A
11:00 PM45 °FBroken clouds.13 mph87%29.36 "HgN/A
10:30 PM46 °FBroken clouds.15 mph82%29.36 "HgN/A
10:00 PM46 °FScattered showers. Partly sunny.18 mph82%29.39 "HgN/A
9:30 PM46 °FScattered showers. Partly sunny.18 mph82%29.36 "HgN/A
9:00 PM46 °FDrizzle. Broken clouds.17 mph87%29.36 "HgN/A
8:30 PM48 °FLight rain. Broken clouds.18 mph87%29.36 "HgN/A
8:00 PM46 °FBroken clouds.17 mph87%29.36 "HgN/A
7:30 PM46 °FLight rain. Broken clouds.20 mph87%29.39 "HgN/A
7:00 PM48 °FBroken clouds.21 mph82%29.36 "HgN/A
6:30 PM50 °FPartly sunny.21 mph82%29.36 "HgN/A
6:00 PM50 °FLight rain. Broken clouds.21 mph88%29.39 "HgN/A
5:30 PM50 °FLight rain. Partly sunny.21 mph88%29.39 "HgN/A
5:00 PM50 °FLight rain. Partly sunny.23 mph82%29.39 "HgN/A
4:30 PM52 °FBroken clouds.21 mph77%29.39 "HgN/A
4:00 PM52 °FBroken clouds.20 mph77%29.39 "HgN/A
Weather by CustomWeather, © 2016

See weather overviewHow to use our weather pages